CAPE
0 0 0 0 0 0 0 0 0 0 0 0 0 0 0 0 0 0 0 0 0 0 107 1047 1284 1459 1522 1607 1449 1342 992 940 1037 829 554 436 339 264 169 271 369 544 246 79 7 1 1 0 2
0 0 0 0 0 0 0 0 0 0 0 0 0 0 0 0 0 0 0 0 0 0 157 751 1043 1340 1490 1662 1554 1357 1059 1251 815 903 681 470 253 137 2 2 19 104 13 4 1 0 0 0 0
0 0 0 0 0 0 0 0 0 0 0 0 0 0 0 0 0 0 0 0 0 0 71 279 919 1383 1484 1603 1566 1434 1344 1368 971 693 357 97 10 3 1 3 3 2 2 1 0 0 0 0 0
0 0 0 0 0 0 0 0 0 0 0 0 0 0 0 0 0 0 0 0 0 0 0 44 794 1074 1082 1520 1408 1275 1321 1129 567 254 51 28 7 1 2 2 1 2 0 0 0 0 0 0 0
0 0 0 0 0 0 0 0 0 0 0 0 0 0 0 0 0 0 0 0 0 0 0 0 516 822 974 843 1047 906 987 461 244 18 11 10 6 5 1 0 0 0 0 0 0 0 0 0 0
0 0 0 0 0 0 0 0 0 0 0 0 0 0 0 0 0 0 0 0 0 0 0 0 103 292 504 266 599 730 587 471 46 9 4 5 6 0 0 0 0 0 0 0 0 0 0 0 0
0 0 0 0 0 0 0 0 0 0 0 0 0 0 0 0 0 0 0 0 0 0 0 0 0 3 10 1 74 229 375 238 76 9 8 8 1 0 0 0 0 0 0 0 0 0 0 0 0
0 0 0 0 0 0 0 0 0 0 0 0 0 0 0 0 0 0 0 0 0 0 0 0 0 0 0 0 1 4 7 13 14 13 5 0 0 0 0 0 0 0 0 0 0 0 0 0 0
0 0 0 0 0 0 0 0 0 0 0 0 0 0 0 0 0 0 0 0 0 0 0 0 0 0 0 0 0 0 3 0 0 0 0 0 0 0 0 0 0 0 0 0 0 0 0 0 0
0 0 0 0 0 0 0 0 0 0 0 0 0 0 0 0 0 0 0 0 0 0 0 0 0 0 0 0 0 0 0 0 0 0 0 0 0 0 0 0 0 0 0 0 0 0 0 0 0
0 0 0 0 0 0 0 0 0 0 0 0 0 0 0 0 0 0 0 0 0 0 0 0 0 0 0 0 0 0 0 0 0 0 0 0 0 0 0 0 0 0 0 0 0 0 0 0 0
0 0 0 0 0 0 0 0 0 0 0 0 0 0 0 0 0 0 0 0 0 0 0 0 0 0 0 0 0 0 0 0 0 0 0 0 0 0 0 0 0 0 0 0 0 0 0 0 0
0 0 0 0 0 0 0 0 0 0 0 0 0 0 0 0 0 0 0 0 0 0 0 0 0 0 0 0 0 0 0 0 0 0 0 0 0 0 0 0 0 0 0 0 0 0 0 0 0
0 0 0 0 0 0 0 0 0 0 0 0 0 0 0 0 0 0 0 0 0 0 0 0 0 0 0 0 0 0 0 0 0 0 0 0 0 0 0 0 0 0 0 0 0 0 0 0 0
0 0 0 0 0 0 0 0 0 0 0 0 0 0 0 0 0 0 0 0 0 0 0 0 0 0 0 0 0 0 0 0 0 0 0 0 0 0 0 0 0 0 0 0 0 0 0 0 0
0 0 0 0 0 0 0 0 0 0 0 0 0 0 0 0 0 0 0 0 0 0 0 0 0 0 0 0 0 0 0 0 0 0 0 0 0 0 0 0 0 0 0 0 0 0 0 0 0
0 0 0 0 0 0 0 0 0 0 0 0 0 0 0 0 0 0 0 0 0 0 0 0 0 0 0 0 0 0 0 0 0 0 0 0 0 0 0 0 0 0 0 0 0 0 0 0 0
0 0 0 0 0 0 0 0 0 0 0 0 0 0 0 0 0 0 0 0 0 0 0 0 0 0 0 0 0 0 0 0 0 0 0 0 0 0 0 0 0 0 0 0 0 0 0 0 0
0 0 0 0 0 0 0 0 0 0 0 0 0 0 0 0 0 0 0 0 0 0 0 0 0 0 0 0 0 0 0 0 0 0 0 0 0 0 0 0 0 0 0 0 0 0 0 0 0
0 0 0 0 0 0 0 0 0 0 0 0 0 0 0 0 0 0 0 0 0 0 0 0 0 0 0 0 0 0 0 0 0 0 0 0 0 0 0 0 0 0 0 0 0 0 0 0 0
0 0 0 0 0 0 0 0 0 0 0 0 0 0 0 0 0 0 0 0 0 0 0 0 0 0 0 0 0 0 0 0 0 0 0 0 0 0 0 0 0 0 0 0 0 0 0 0 0
0 0 0 0 0 0 0 0 0 0 0 0 0 0 0 0 0 0 0 0 0 0 0 0 0 0 0 0 0 0 0 0 0 0 0 0 0 0 0 0 0 0 0 0 0 0 0 0 0
0 0 0 0 0 0 0 0 0 0 0 0 0 0 0 0 0 0 0 0 0 0 0 0 0 0 0 0 0 0 0 0 0 0 0 0 0 0 0 0 0 0 0 0 0 0 0 0 0
0 0 0 0 0 0 0 0 0 0 0 0 0 0 0 0 0 0 0 0 0 0 0 0 0 0 0 0 0 0 0 0 0 0 0 0 0 0 0 0 0 0 0 0 0 0 0 0 0
0 0 0 0 0 0 0 0 0 0 0 0 0 0 0 0 0 0 0 0 0 0 0 0 0 0 0 0 0 0 0 0 0 0 0 0 0 0 0 0 0 0 0 0 0 0 0 0 0
0 0 0 0 0 0 0 0 0 0 0 0 0 0 0 0 0 0 0 0 0 0 0 0 0 0 0 0 0 0 0 0 0 0 0 0 0 0 0 0 0 0 0 0 0 0 0 0 0
0 0 0 0 0 0 0 0 0 0 0 0 0 0 0 0 0 0 0 0 0 0 0 0 0 0 0 0 0 0 0 0 0 0 0 0 0 0 0 0 0 0 0 0 0 0 0 0 0
0 0 0 0 0 0 0 0 0 0 0 0 0 0 0 0 0 0 0 0 0 0 0 0 0 0 0 0 0 0 0 0 0 0 0 0 0 0 0 0 0 0 0 0 0 0 0 0 0
0 0 0 0 0 0 0 0 0 0 0 0 0 0 0 0 0 0 0 0 0 0 0 0 0 0 0 0 0 0 0 0 0 0 0 0 0 0 0 0 0 0 0 0 0 0 0 0 0
0 0 0 0 0 0 0 1 0 0 0 0 0 0 0 0 0 0 0 0 0 0 0 0 0 0 0 0 0 0 0 0 0 0 0 0 0 0 0 0 0 0 0 0 0 0 0 0 0
CIN
0 0 0 0 0 0 0 0 0 0 0 0 0 0 0 0 0 0 0 0 0 0 -556 -99 -31 -3 0 0 0 0 0 -3 0 0 -15 -29 -42 -67 -45 -7 -2 -1 -1 -63 -50 0 0 0 0
0 0 0 0 0 0 0 0 0 0 0 0 0 0 0 0 0 0 0 0 0 0 -498 -188 -81 -13 0 0 0 0 0 0 -2 0 -16 -39 -65 -104 -2 0 -76 -56 -81 -5 0 0 0 0 0
0 0 0 0 0 0 0 0 0 0 0 0 0 0 0 0 0 0 0 0 0 0 -547 -367 -116 -16 -1 0 0 0 0 0 -3 -19 -84 -179 -64 0 0 0 0 0 -1 0 0 0 0 0 0
0 0 0 0 0 0 0 0 0 0 0 0 0 0 0 0 0 0 0 0 0 0 0 -482 -145 -61 -38 0 0 0 0 -1 -63 -137 -235 -189 -2 -1 0 0 0 0 0 0 0 0 0 0 0
0 0 0 0 0 0 0 0 0 0 0 0 0 0 0 0 0 0 0 0 0 0 0 0 -205 -116 -64 -60 -21 -19 -7 -79 -171 -347 0 -2 -1 0 0 0 0 0 0 0 0 0 0 0 0
0 0 0 0 0 0 0 0 0 0 0 0 0 0 0 0 0 0 0 0 0 0 0 0 -374 -253 -165 -228 -108 -60 -61 -79 -269 -1 0 0 0 0 0 0 0 0 0 0 0 0 0 0 0
0 0 0 0 0 0 0 0 0 0 0 0 0 0 0 0 0 0 0 0 0 0 0 0 0 -308 -420 -1 -282 -194 -131 -150 -214 0 0 0 0 0 0 0 0 0 0 0 0 0 0 0 0
0 0 0 0 0 0 0 0 0 0 0 0 0 0 0 0 0 0 0 0 0 0 0 0 0 0 0 -8 -3 -3 -10 -3 -3 -2 -3 0 0 0 0 0 0 0 0 0 0 0 0 0 0
0 0 0 0 0 0 0 0 0 0 0 0 0 0 0 0 0 0 0 0 0 0 0 0 0 0 0 0 0 0 -7 0 0 0 0 0 0 0 0 0 0 0 0 0 0 0 0 0 0
0 0 0 0 0 0 0 0 0 0 0 0 0 0 0 0 0 0 0 0 0 0 0 0 0 0 0 0 0 0 0 0 0 0 0 0 0 0 0 0 0 0 0 0 0 0 0 0 0
0 0 0 0 0 0 0 0 0 0 0 0 0 0 0 0 0 0 0 0 0 0 0 0 0 0 0 0 0 0 0 0 0 0 0 0 0 0 0 0 0 0 0 0 0 0 0 0 0
0 0 0 0 0 0 0 0 0 0 0 0 0 0 0 0 0 0 0 0 0 0 0 0 0 0 0 0 0 0 0 0 0 0 0 0 0 0 0 0 0 0 0 0 0 0 0 0 0
0 0 0 0 0 0 0 0 0 0 0 0 0 0 0 0 0 0 0 0 0 0 0 0 0 0 0 0 0 0 0 0 0 0 0 0 0 0 0 0 0 0 0 0 0 0 0 0 0
0 0 0 0 0 0 0 0 0 0 0 0 0 0 0 0 0 0 0 0 0 0 0 0 0 0 0 0 0 0 0 0 0 0 0 0 0 0 0 0 0 0 0 0 0 0 0 0 0
0 0 0 0 0 0 0 0 0 0 0 0 0 0 0 0 0 0 0 0 0 0 0 0 0 0 0 0 0 0 0 0 0 0 0 0 0 0 0 0 0 0 0 0 0 0 0 0 0
0 0 0 0 0 0 0 0 0 0 0 0 0 0 0 0 0 0 0 0 0 0 0 0 0 0 0 0 0 0 0 0 0 0 0 0 0 0 0 0 0 0 0 0 0 0 0 0 0
0 0 0 0 0 0 0 0 0 0 0 0 0 0 0 0 0 0 0 0 0 0 0 0 0 0 0 0 0 0 0 0 0 0 0 0 0 0 0 0 0 0 0 0 0 0 0 0 0
0 0 0 0 0 0 0 0 0 0 0 0 0 0 0 0 0 0 0 0 0 0 0 0 0 0 0 0 0 0 0 0 0 0 0 0 0 0 0 0 0 0 0 0 0 0 0 0 0
0 0 0 0 0 0 0 0 0 0 0 0 0 0 0 0 0 0 0 0 0 0 0 0 0 0 0 0 0 0 0 0 0 0 0 0 0 0 0 0 0 0 0 0 0 0 0 0 0
0 0 0 0 0 0 0 0 0 0 0 0 0 0 0 0 0 0 0 0 0 0 0 0 0 0 0 0 0 0 0 0 0 0 0 0 0 0 0 0 0 0 0 0 0 0 0 0 0
0 0 0 0 0 0 0 0 0 0 0 0 0 0 0 0 0 0 0 0 0 0 0 0 0 0 0 0 0 0 0 0 0 0 0 0 0 0 0 0 0 0 0 0 0 0 0 0 0
0 0 0 0 0 0 0 0 0 0 0 0 0 0 0 0 0 0 0 0 0 0 0 0 0 0 0 0 0 0 0 0 0 0 0 0 0 0 0 0 0 0 0 0 0 0 0 0 0
0 0 0 0 0 0 0 0 0 0 0 0 0 0 0 0 0 0 0 0 0 0 0 0 0 0 0 0 0 0 0 0 0 0 0 0 0 0 0 0 0 0 0 0 0 0 0 0 0
0 0 0 0 0 0 0 0 0 0 0 0 0 0 0 0 0 0 0 0 0 0 0 0 0 0 0 0 0 0 0 0 0 0 0 0 0 0 0 0 0 0 0 0 0 0 0 0 0
0 0 0 0 0 0 0 0 0 0 0 0 0 0 0 0 0 0 0 0 0 0 0 0 0 0 0 0 0 0 0 0 0 0 0 0 0 0 0 0 0 0 0 0 0 0 0 0 0
0 0 0 0 0 0 0 0 0 0 0 0 0 0 0 0 0 0 0 0 0 0 0 0 0 0 0 0 0 0 0 0 0 0 0 0 0 0 0 0 0 0 0 0 0 0 0 0 0
0 0 0 0 0 0 0 0 0 0 0 0 0 0 0 0 0 0 0 0 0 0 0 0 0 0 0 0 0 0 0 0 0 0 0 0 0 0 0 0 0 0 0 0 0 0 0 0 0
0 0 0 0 0 0 0 0 0 0 0 0 0 0 0 0 0 0 0 0 0 0 0 0 0 0 0 0 0 0 0 0 0 0 0 0 0 0 0 0 0 0 0 0 0 0 0 0 0
0 0 0 0 0 0 0 -2 0 0 0 0 0 0 0 0 0 0 0 0 0 0 0 0 0 0 0 0 0 0 0 0 0 0 0 0 0 0 0 0 0 0 0 0 0 0 0 0 0
0 0 0 0 0 0 0 -8 0 0 0 0 0 0 0 0 0 0 0 0 0 0 0 0 0 0 0 0 0 0 0 0 0 0 0 0 0 0 0 0 0 0 0 0 0 0 0 0 0
Wind_Speed
3 3 2 5 4 4 3 5 2 3 2 2 6 4 4 1 5 4 1 9 5 12 11 11 12 14 13 12 11 10 10 9 10 9 8 8 9 8 7 9 8 12 11 12 11 7 7 9 9
2 1 5 3 4 2 4 3 4 5 0 2 2 2 1 6 3 5 2 11 7 12 12 10 12 13 12 11 12 12 11 12 10 10 10 10 8 8 6 6 5 9 10 9 7 6 8 8 9
2 4 4 4 3 4 4 5 3 2 2 3 1 2 2 4 2 3 2 13 7 10 10 9 11 13 12 11 12 12 12 13 12 11 9 6 6 7 6 5 6 5 8 7 6 7 8 8 9
3 4 4 4 4 7 6 2 3 5 1 2 1 5 4 4 3 2 3 9 10 10 8 9 11 13 11 12 14 14 13 15 13 8 6 8 6 6 5 5 6 8 8 8 7 8 9 10 11
5 3 3 2 4 6 5 5 2 2 3 2 2 3 5 2 2 1 6 9 11 9 8 8 11 12 13 12 13 12 12 11 12 10 11 11 9 9 8 7 8 8 8 8 9 9 11 10 11
5 3 3 3 5 6 6 5 2 2 2 1 2 1 6 1 2 4 5 10 9 12 8 7 8 10 12 16 13 11 13 12 14 13 13 13 12 11 11 11 10 9 9 9 10 9 10 11 11
7 4 3 3 5 6 5 2 3 3 2 5 2 2 5 4 3 4 5 6 7 7 8 8 8 9 9 17 13 14 13 12 13 14 14 13 13 12 12 11 11 12 12 11 11 10 11 11 11
5 4 2 4 3 7 3 2 3 5 5 2 4 5 6 2 3 4 3 4 5 6 8 9 9 8 8 8 10 11 12 13 13 13 13 11 11 11 10 9 11 12 12 11 11 11 11 11 11
3 4 2 5 6 5 2 2 3 1 3 4 7 6 4 3 4 4 3 3 5 7 9 9 9 8 8 8 7 10 11 12 12 11 12 10 5 7 7 6 10 12 12 11 10 11 11 11 11
5 4 9 6 6 5 3 5 3 2 5 6 6 7 4 4 4 8 9 11 12 13 13 10 10 10 8 5 7 7 7 7 7 8 9 7 8 6 6 5 9 11 11 11 10 10 10 7 4
4 7 6 6 8 4 4 4 4 4 7 11 10 8 6 6 8 11 12 12 17 14 9 14 12 10 10 8 6 4 4 5 6 9 9 8 6 5 4 3 4 4 7 4 6 5 3 5 3
3 8 6 4 4 1 5 3 4 9 19 8 11 6 4 9 12 14 15 16 14 11 14 12 13 12 11 7 7 7 7 6 6 8 10 8 5 6 6 5 6 5 4 5 4 3 4 5 5
4 5 5 5 5 8 5 14 6 14 18 10 9 8 12 10 13 11 14 11 11 14 14 15 15 15 13 12 8 8 9 8 9 9 9 8 8 8 7 6 5 5 5 5 4 4 4 4 4
3 4 8 5 7 6 7 16 5 10 8 12 7 15 10 11 15 7 10 17 15 15 17 15 18 17 15 15 13 11 9 9 9 9 10 11 8 8 8 7 7 6 6 5 5 4 4 3 4
1 6 9 6 5 8 7 9 12 19 1 12 17 11 12 11 8 16 16 14 17 17 14 18 18 17 18 18 14 12 11 10 10 9 12 13 11 11 10 8 7 7 6 7 5 5 4 4 3
2 1 4 4 5 3 8 13 17 7 5 11 12 14 9 16 11 12 12 14 10 11 16 14 15 18 19 18 14 12 11 11 10 10 10 13 12 12 11 8 8 8 7 7 6 5 4 3 3
3 5 7 11 9 4 7 9 9 4 4 12 14 17 20 20 21 15 11 13 12 14 14 16 17 20 20 17 13 13 13 12 10 9 10 13 13 12 10 8 8 10 7 7 7 4 3 4 3
8 5 5 7 9 5 7 14 15 14 14 23 21 19 19 18 22 20 8 9 10 12 13 13 13 16 16 11 10 8 8 10 9 11 11 15 12 13 11 8 9 9 8 7 6 5 3 2 4
3 5 6 13 13 4 24 19 14 16 14 23 24 21 15 15 18 8 6 9 9 7 9 14 15 15 14 12 12 9 14 12 10 11 14 16 14 14 13 9 10 9 9 10 10 5 5 3 3
7 8 16 8 12 3 13 21 21 20 23 19 22 19 9 9 16 14 6 6 8 7 9 10 14 15 16 13 12 5 10 9 9 9 11 14 14 15 13 12 11 12 9 10 10 7 4 2 5
4 7 10 10 8 6 9 9 4 7 7 5 12 8 9 10 12 14 14 11 9 9 8 11 13 14 14 13 10 4 6 3 7 8 9 12 15 15 16 15 12 12 10 10 11 10 9 5 3
7 11 10 6 5 4 6 17 5 8 10 8 5 5 7 8 9 8 9 13 11 10 6 6 8 12 12 13 11 17 11 10 8 11 9 11 15 15 15 15 14 14 10 11 11 9 6 5 6
12 3 3 2 3 4 2 3 5 3 7 7 6 3 3 5 5 13 16 14 16 11 9 5 3 6 8 12 13 12 11 8 5 7 13 12 11 12 14 15 14 13 10 11 12 11 9 5 5
4 4 6 4 3 5 9 8 2 5 5 1 2 8 3 14 13 17 9 10 12 12 10 8 4 2 1 6 6 11 12 4 5 9 11 11 9 9 11 12 13 13 13 13 12 12 12 10 5
3 5 4 4 2 9 1 2 7 5 10 5 8 10 9 9 12 17 20 19 18 17 11 9 8 6 4 3 3 6 7 6 9 8 7 11 9 9 13 14 13 12 12 12 12 12 12 12 10
8 10 8 8 7 10 2 9 14 8 5 5 7 7 14 20 18 18 19 20 19 20 17 12 10 7 5 3 4 3 4 4 5 6 7 9 10 12 15 15 14 13 13 12 11 8 8 9 9
3 7 4 1 2 1 8 12 16 8 7 14 18 21 18 18 18 18 18 19 18 18 19 16 13 9 7 5 3 4 4 5 6 6 4 5 7 7 10 14 15 16 16 16 16 12 13 11 10
8 1 1 2 4 13 7 14 15 13 12 13 16 15 12 13 15 15 15 15 15 15 15 16 16 14 12 9 5 5 5 6 6 6 10 10 9 8 10 13 14 14 14 15 16 12 12 13 10
2 4 4 3 6 12 10 8 9 9 8 9 8 7 9 10 11 11 10 10 11 12 15 16 16 17 17 15 12 8 8 8 7 9 9 10 8 10 12 14 14 15 16 15 15 15 15 16 14
2 7 7 7 8 5 9 8 5 12 11 9 7 9 10 11 11 10 10 9 10 12 13 14 14 14 15 15 14 13 9 8 9 11 10 8 11 10 12 13 15 15 16 17 19 18 16 19 18
Wind_Direction
27 44 64 41 47 57 269 263 290 275 259 135 123 149 204 238 173 220 149 200 189 158 170 181 176 175 179 178 173 172 175 177 165 156 143 128 117 108 97 102 92 99 105 87 79 67 74 76 80
31 57 47 77 85 38 269 260 243 234 20 138 164 150 259 261 240 271 207 184 197 165 166 167 170 178 181 180 172 176 189 185 174 161 149 132 132 119 137 160 122 100 81 76 94 95 85 82 78
96 34 79 87 104 195 232 222 244 270 210 188 237 240 241 234 249 257 230 162 172 172 166 166 161 165 173 182 180 188 194 175 164 143 135 123 166 159 167 152 155 133 108 120 113 92 86 82 72
58 16 47 85 233 254 228 243 234 305 137 248 202 274 282 230 188 206 151 162 164 168 166 174 171 168 166 178 177 185 189 172 151 144 151 182 182 173 164 150 137 128 125 120 103 98 89 80 70
39 54 51 15 257 264 255 263 217 263 294 206 193 270 262 254 18 107 161 166 172 173 170 176 180 180 176 175 177 171 173 172 142 170 195 188 181 171 161 157 144 135 123 115 108 103 93 85 78
52 96 51 276 260 265 274 240 199 210 244 227 205 253 252 225 210 198 178 180 175 172 174 183 190 189 195 195 189 184 182 177 181 184 191 184 174 170 167 161 153 148 137 126 120 114 103 93 87
115 93 205 236 269 297 246 134 188 202 225 246 177 226 258 285 216 159 174 169 173 177 179 186 192 193 204 201 203 195 189 190 188 197 185 174 175 175 172 168 160 153 147 141 134 123 113 103 95
106 96 160 230 226 271 263 229 182 171 257 73 183 235 258 209 99 110 128 166 191 193 196 196 198 193 183 189 204 187 186 184 178 175 169 161 169 174 168 165 166 157 148 142 134 128 114 105 99
132 74 211 244 172 246 252 270 187 140 255 210 207 213 238 102 125 131 153 209 210 219 214 203 198 196 184 185 189 180 177 169 167 160 150 145 149 149 156 169 171 158 149 142 137 123 111 98 88
110 139 220 211 197 221 249 219 229 189 249 244 269 260 207 152 181 191 197 208 211 216 210 205 202 196 186 180 187 178 174 169 162 155 149 148 150 155 162 197 163 153 149 143 132 116 103 96 92
170 203 217 248 228 220 241 266 209 180 255 232 217 233 208 196 210 220 220 216 213 214 204 202 199 196 190 187 181 181 176 167 163 161 155 155 155 165 164 150 120 115 104 108 111 115 104 99 95
214 245 213 247 221 237 248 306 231 199 254 240 225 223 198 213 218 219 224 223 218 203 212 201 196 195 199 188 189 183 179 175 172 172 163 161 164 173 169 165 151 146 145 142 143 131 122 111 101
222 249 243 229 255 254 297 266 236 245 257 274 278 245 243 237 236 226 232 234 217 221 211 204 193 199 194 193 191 189 190 184 178 172 174 167 171 178 170 172 165 164 155 158 152 146 142 127 111
219 263 269 272 240 241 204 271 140 256 271 287 246 268 250 235 242 232 222 234 218 220 215 201 202 201 191 197 194 193 191 185 180 179 181 177 174 176 180 177 176 173 171 161 162 160 146 141 144
241 301 313 216 253 226 164 288 236 252 272 276 285 275 284 254 241 232 234 226 222 220 214 205 200 196 199 200 194 193 191 183 189 187 183 182 180 179 177 179 180 177 168 152 148 149 152 165 148
275 108 303 253 167 237 168 257 271 283 247 271 280 285 264 274 252 238 238 240 223 217 209 206 200 198 199 202 197 195 191 188 191 187 185 185 185 182 178 178 181 170 165 166 164 159 147 154 153
321 241 223 308 216 138 186 250 264 296 255 273 273 278 280 275 278 271 235 232 230 215 209 205 199 200 199 201 197 199 193 193 192 185 185 185 185 183 181 181 174 170 167 169 164 157 165 174 155
234 227 247 253 288 166 214 247 279 289 293 280 279 270 269 278 274 281 275 243 234 217 214 206 200 203 195 188 189 189 191 200 191 190 189 182 186 181 180 177 169 168 166 166 170 161 165 155 140
234 230 250 264 272 293 284 279 271 273 258 271 276 275 275 279 278 296 276 263 252 223 203 199 190 193 179 184 179 190 202 196 195 196 192 187 185 183 182 177 168 172 177 175 172 157 164 151 165
246 278 269 276 267 175 271 285 284 260 266 257 266 281 298 290 305 312 302 271 262 254 214 200 201 193 192 188 192 192 190 207 205 196 193 192 185 181 181 176 179 179 172 173 175 169 147 132 186
213 226 267 258 325 253 308 267 221 263 246 268 260 291 286 284 298 312 322 309 275 268 243 209 202 197 200 192 170 113 100 101 178 191 189 194 183 180 182 182 178 179 182 183 182 180 169 157 182
258 231 251 277 357 275 29 301 207 242 272 263 342 282 301 320 320 301 289 332 334 294 285 225 216 183 191 183 193 194 193 181 198 195 196 193 192 186 184 181 178 178 181 183 186 182 182 150 162
226 188 247 152 180 329 27 308 276 197 252 292 301 51 324 274 264 1 360 334 333 338 332 308 182 183 191 190 192 201 221 207 157 163 176 186 190 193 184 180 178 180 181 184 181 180 193 192 163
100 87 45 56 88 285 210 189 25 172 197 256 288 323 341 14 357 1 359 335 350 359 3 5 48 42 123 181 212 221 221 217 177 167 176 177 175 180 192 189 184 185 188 185 183 182 189 191 187
111 72 320 328 21 229 183 233 236 278 287 10 313 335 17 340 6 10 6 10 8 10 5 26 28 12 358 319 259 241 240 213 204 194 188 175 174 188 192 185 191 190 191 186 180 184 191 191 192
187 169 182 216 230 260 160 246 265 209 29 305 17 61 22 16 20 17 13 10 13 13 14 10 17 8 3 350 314 302 297 272 262 209 184 190 197 197 185 191 190 188 181 181 186 195 200 197 198
170 196 233 290 63 293 254 273 295 322 66 45 38 34 21 13 11 14 13 14 8 14 17 16 7 6 0 325 296 270 259 234 226 218 215 216 212 199 197 193 188 186 182 183 182 187 189 190 193
183 177 172 305 210 241 219 253 258 304 71 39 27 22 20 14 11 14 17 13 8 11 13 18 22 16 6 347 313 285 259 247 241 215 209 198 197 178 182 191 199 196 192 189 188 190 188 183 187
167 245 237 286 210 247 250 231 237 94 94 86 47 33 25 20 10 9 10 14 18 13 11 10 13 7 9 4 357 315 285 260 243 236 222 213 200 191 189 190 196 199 194 190 195 195 186 188 183
240 248 209 223 230 254 250 245 6 104 93 85 71 48 29 17 9 4 2 1 15 18 15 8 2 6 1 348 353 355 321 278 257 250 238 208 206 200 201 197 194 198 203 196 195 197 193 190 187